Torna al catalogo

STARLINK-34158

AttivoComunicazioniVLEO
NORAD 63996·PAYLOAD·🇺🇸 United States

Lanciato May 14, 2025 da Cape Canaveral Space Force Station

Loading…

Prossimi Passaggi (prossime 24 ore)

TLE

AggiornatoSource: CelesTrak SupGP

Epoca: Sep 15, 2026, 03:35 UTC

1 63996C 25101C   26258.14979167  .00037438  00000+0  13557-2 0  2584
2 63996  43.0037   7.8809 0001513 268.0844  50.0029 15.27566847    14

Traccia STARLINK-34158 in tempo reale con AllMySat

Download on the App Store